ATLAS 5 CENTAUR DEB, 44015

Orbit data source: Space-Track

ATLAS 5 CENTAUR DEB, 44015 is space debris in HEO originally from a launch on Wed, 17 Sep 2014 UTC launched from the Air Force Eastern Test Range (AFETR). Debris objects in space refer to the collection of defunct objects orbiting the Earth. Examples of debris include non-operational satellites, rocket bodies, and fragments generated from explosions, collisions, or faulty payload assembly.

Loading next visibility...
Identifier
44015, 2014-055BW
Orbit
HEO
Country
Flag of USUS
Related business
Flag of USUnited Launch Alliance/Lockheed Martin (US)
Manufacturer
Unknown
Mission
Spacecraft
Bus & Motor
Unknown
Mass
Unknown
Launch date (UTC)
2014-09-17 (12 years ago)
Launch vehicle
Unknown
Launch site
Air Force Eastern Test Range (AFETR)
Object type
Payload
Rocket body
Debris
Shape & HBR
Unknown shape, 1.1 m
Radar Cross Section
Medium (>0.1 m² and <1 m²)

Expand to show TLE details & history
Last TLE update: 5 days ago

TLE from 5 days ago
0 ATLAS 5 CENTAUR DEB
1 44015U 14055BW  26232.29857047 -.00000085  00000-0  00000-0 0  9990
2 44015  21.2637  79.0257 5086482 281.9333  27.3903  1.95142834 55819
Epoch: 2026-08-20T07:09Z
TLE epoch observation values (Epoch: 2026-08-20T07:09:56.488Z)
Latitude
-0.00004°
Longitude
2.96978°
Altitude
11,778.217 km
Speed
5.401 km/s
True Right ascension
05h 16m 22s
True Declination
0° 00' 00"
Sunlit
Object was in daylight at epoch
Visualization orbit readout
Latitude
Unknown
Longitude
Unknown
Altitude
Unknown
Speed
Unknown
Apparent Right ascension
Unknown
Apparent Declination
Unknown
Sunlit
N/A
Visualization observer readout
Local Sidereal Time
00:13:11
Azimuth
Unknown
Elevation
Unknown
Doppler factor
Unknown
Orbital elements
Apogee altitude
34,433.864 km
Perigee altitude
6,913.928 km
Semi-major axis
27,052.033 km
Eccentricity
0.50865
Inclination
21.2637°
RAAN
79.0257°
Arg. of periapsis
281.9333°
True anomaly
77.9607°
Mean anomaly
27.3903°
Eccentric anomaly
49.5763°
Mean motion
0.4878 °/min
Orbital period
738 mins
BSTAR
0
Loading maneuver chart data...
Computing Atmospheric mass density...

Documentation

Showing up to 5 results
|